User: anonymous   Login
Location: Unspecified
(0.0000°N, 0.0000°E)
Time: 21:03:48
(UTC+00:00)
Language:

STARLINK-34600 - Orbit

View from above orbital plane
View from above orbital plane
View from above satellite
View from above satellite

Ground track
Ground track

The orbit is defined by the following mean orbital elements,

1 64699U          26145.36715411 +.00000000 +00000-0 +19959-3 0 00009
2 64699  70.0011 121.2073 0004193 262.9251  97.1431 14.98342013    05
Epoch (UTC): 25 May 2026 08:48:42
Eccentricity: 0.0004193
inclination: 70.0011°
perigee height: 569 km
apogee height: 575 km
right ascension of ascending node: 121.2073°
argument of perigee: 262.9251°
revolutions per day: 14.98342013
mean anomaly at epoch: 97.1431°

The dashed part of the orbit path shows where the satellite is in the earth's shadow,  

DLR